Retour au catalogue

PRAETORIAN SDA_610

ActifMilitairePO
NORAD 65573·PAYLOAD·🇺🇸 United States

Lancé Sep 10, 2025 depuis Vandenberg Space Force Base

Loading…

Prochains Passages (prochaines 24 heures)

TLE

FraisSource: Space-Track

Époque: Sep 14, 2026, 12:13 UTC

1 65573U 25203J   26257.50964855  .00000053  00000-0  37733-4 0  9997
2 65573  81.2982 288.1138 0005974 324.2102  35.8653 13.83533874 51043

Suivez PRAETORIAN SDA_610 en temps réel avec AllMySat

Download on the App Store